Voltar ao catálogo

DELTA 1 DEB

AtivoSSO
NORAD 7029·DEBRIS·🇺🇸 United States

Lançado Nov 6, 1973 de Vandenberg Space Force Base

Loading…

Próximas Passagens (próximas 24 horas)

TLE

AtualizadoSource: Space-Track

Época: Sep 14, 2026, 13:27 UTC

1  7029U 73086V   26257.56099646 -.00000046  00000-0  40089-5 0  9996
2  7029 102.3489 275.7986 0012638  79.5536  74.5286 12.37176492386838

Acompanhe DELTA 1 DEB em tempo real com AllMySat

Download on the App Store